• In Latvia
  • List of Countries
  • For 7 days
  • Water Temperature
  • Satellite Maps
  • Weather Map
  • Weather Widgets
  • user-avatar
    Login

    Hourly Weather Adelaide

    Today, 20 July, Thursday

    Time Temperature Precipitation Wind Pressure Humidity
    00:00 +8°C° 0 mm 2 mps 764 mmHg 79%
    01:00 +9°C° 0 mm 1 mps 764 mmHg 80%
    02:00 +8°C° 0 mm 1 mps 764 mmHg 81%
    03:00 +8°C° 0 mm 1 mps 764 mmHg 82%
    04:00 +8°C° 0 mm 1 mps 764 mmHg 83%
    05:00 +8°C° 0 mm 1 mps 764 mmHg 83%
    06:00 +8°C° 0 mm 1 mps 764 mmHg 84%
    07:00 +9°C° 0 mm 1 mps 764 mmHg 80%
    08:00 +9°C° 0 mm 2 mps 764 mmHg 77%
    09:00 +12°C° 0 mm 1 mps 764 mmHg 70%
    10:00 +13°C° 0 mm 1 mps 764 mmHg 65%
    11:00 +14°C° 0 mm 1 mps 763 mmHg 60%
    12:00 +15°C° 0 mm 1 mps 763 mmHg 55%
    13:00 +15°C° 0 mm 1 mps 763 mmHg 54%
    14:00 +15°C° 0 mm 1 mps 762 mmHg 53%
    15:00 +14°C° 0 mm 1 mps 762 mmHg 55%
    16:00 +13°C° 0 mm 1 mps 762 mmHg 60%
    17:00 +12°C° 0 mm 2 mps 762 mmHg 65%
    18:00 +10°C° 0 mm 2 mps 762 mmHg 69%
    19:00 +9°C° 0 mm 2 mps 762 mmHg 71%
    20:00 +9°C° 0 mm 3 mps 762 mmHg 72%
    21:00 +8°C° 0 mm 3 mps 762 mmHg 73%
    22:00 +7°C° 0 mm 4 mps 762 mmHg 72%
    23:00 +7°C° 0 mm 4 mps 762 mmHg 71%

    Tomorrow, 21 July, Friday

    Time Temperature Precipitation Wind Pressure Humidity
    00:00 +7°C° 0 mm 4 mps 762 mmHg 69%
    01:00 +7°C° 0 mm 5 mps 761 mmHg 69%
    02:00 +7°C° 0 mm 5 mps 761 mmHg 69%
    03:00 +7°C° 0 mm 5 mps 761 mmHg 69%
    04:00 +7°C° 0 mm 5 mps 761 mmHg 68%
    05:00 +7°C° 0 mm 5 mps 761 mmHg 68%
    06:00 +7°C° 0 mm 5 mps 761 mmHg 68%
    07:00 +8°C° 0 mm 5 mps 761 mmHg 64%
    08:00 +9°C° 0 mm 5 mps 761 mmHg 60%
    09:00 +11°C° 0 mm 6 mps 761 mmHg 56%
    10:00 +13°C° 0 mm 6 mps 761 mmHg 53%
    11:00 +15°C° 0 mm 6 mps 761 mmHg 50%
    12:00 +16°C° 0 mm 6 mps 760 mmHg 47%
    13:00 +16°C° 0 mm 6 mps 760 mmHg 48%
    14:00 +17°C° 0 mm 6 mps 759 mmHg 49%
    15:00 +17°C° 0 mm 5 mps 759 mmHg 50%
    16:00 +16°C° 0 mm 5 mps 759 mmHg 53%
    17:00 +14°C° 0 mm 5 mps 759 mmHg 57%
    18:00 +13°C° 0 mm 5 mps 759 mmHg 60%
    19:00 +13°C° 0 mm 5 mps 759 mmHg 60%
    20:00 +13°C° 0 mm 5 mps 759 mmHg 59%
    21:00 +13°C° 0 mm 5 mps 759 mmHg 58%
    22:00 +13°C° 0 mm 6 mps 759 mmHg 57%
    23:00 +13°C° 0 mm 6 mps 759 mmHg 55%

    Day after tomorrow, 22 July, Saturday

    Time Temperature Precipitation Wind Pressure Humidity
    00:00 +13°C° 0 mm 6 mps 759 mmHg 54%
    01:00 +13°C° 0 mm 6 mps 759 mmHg 54%
    02:00 +13°C° 0 mm 6 mps 759 mmHg 54%
    03:00 +13°C° 0 mm 6 mps 759 mmHg 54%
    04:00 +13°C° 0 mm 6 mps 758 mmHg 54%
    05:00 +13°C° 0 mm 6 mps 758 mmHg 53%
    06:00 +14°C° 0 mm 6 mps 758 mmHg 53%
    07:00 +14°C° 0 mm 7 mps 759 mmHg 53%
    08:00 +14°C° 0 mm 7 mps 759 mmHg 54%
    09:00 +15°C° 0 mm 7 mps 759 mmHg 54%
    10:00 +16°C° 0 mm 7 mps 759 mmHg 52%
    11:00 +17°C° 0 mm 7 mps 758 mmHg 51%
    12:00 +18°C° 0 mm 7 mps 758 mmHg 49%
    13:00 +19°C° 0 mm 6 mps 757 mmHg 50%
    14:00 +19°C° 0 mm 6 mps 757 mmHg 50%
    15:00 +19°C° 0 mm 6 mps 756 mmHg 50%
    16:00 +17°C° 0 mm 5 mps 756 mmHg 53%
    17:00 +17°C° 0 mm 4 mps 756 mmHg 57%
    18:00 +16°C° 0 mm 3 mps 756 mmHg 60%
    19:00 +14°C° 0 mm 3 mps 757 mmHg 61%
    20:00 +14°C° 0 mm 4 mps 757 mmHg 62%
    21:00 +14°C° 0 mm 4 mps 757 mmHg 63%
    22:00 +14°C° 0 mm 4 mps 757 mmHg 69%
    23:00 +14°C° 0 mm 5 mps 757 mmHg 74%

    23 July, Sunday

    Time Temperature Precipitation Wind Pressure Humidity
    00:00 +13°C° 0 mm 5 mps 757 mmHg 79%
    01:00 +13°C° 0 mm 5 mps 757 mmHg 82%
    02:00 +13°C° 0 mm 5 mps 757 mmHg 85%
    03:00 +13°C° 0 mm 5 mps 757 mmHg 88%
    04:00 +13°C° 0.2 mm 5 mps 757 mmHg 87%
    05:00 +13°C° 0.2 mm 5 mps 757 mmHg 86%
    06:00 +14°C° 0.2 mm 6 mps 758 mmHg 85%
    07:00 +14°C° 0.1 mm 6 mps 758 mmHg 81%
    08:00 +15°C° 0.1 mm 6 mps 758 mmHg 78%
    09:00 +15°C° 0.1 mm 6 mps 759 mmHg 74%
    10:00 +16°C° 0.2 mm 7 mps 759 mmHg 71%
    11:00 +16°C° 0.2 mm 7 mps 758 mmHg 68%
    12:00 +17°C° 0.2 mm 7 mps 758 mmHg 65%
    13:00 +16°C° 0.4 mm 8 mps 758 mmHg 66%
    14:00 +16°C° 0.4 mm 8 mps 758 mmHg 67%
    15:00 +16°C° 0.4 mm 8 mps 757 mmHg 68%
    16:00 +15°C° 0.2 mm 7 mps 758 mmHg 72%
    17:00 +14°C° 0.2 mm 7 mps 758 mmHg 76%
    18:00 +13°C° 0.2 mm 6 mps 759 mmHg 80%
    19:00 +13°C° 0.1 mm 6 mps 759 mmHg 81%
    20:00 +13°C° 0.1 mm 5 mps 760 mmHg 81%
    21:00 +13°C° 0.1 mm 5 mps 760 mmHg 82%
    22:00 +12°C° 0 mm 5 mps 760 mmHg 82%
    23:00 +12°C° 0 mm 4 mps 760 mmHg 82%

    24 July, Monday

    Time Temperature Precipitation Wind Pressure Humidity
    00:00 +12°C° 0 mm 4 mps 760 mmHg 82%
    01:00 +12°C° 0 mm 4 mps 760 mmHg 82%
    02:00 +11°C° 0 mm 4 mps 760 mmHg 83%
    03:00 +11°C° 0 mm 3 mps 760 mmHg 83%
    04:00 +11°C° 0 mm 3 mps 760 mmHg 84%
    05:00 +11°C° 0 mm 3 mps 761 mmHg 85%
    06:00 +11°C° 0 mm 3 mps 761 mmHg 86%
    07:00 +12°C° 0 mm 4 mps 761 mmHg 84%
    08:00 +13°C° 0 mm 4 mps 761 mmHg 82%
    09:00 +14°C° 0 mm 5 mps 762 mmHg 80%
    10:00 +15°C° 0 mm 5 mps 761 mmHg 75%
    11:00 +16°C° 0 mm 5 mps 761 mmHg 70%
    12:00 +16°C° 0 mm 5 mps 761 mmHg 64%
    13:00 +17°C° 0 mm 5 mps 760 mmHg 62%
    14:00 +17°C° 0 mm 5 mps 760 mmHg 60%
    15:00 +17°C° 0 mm 5 mps 759 mmHg 58%
    16:00 +15°C° 0 mm 5 mps 760 mmHg 62%
    17:00 +14°C° 0 mm 4 mps 760 mmHg 66%
    18:00 +13°C° 0 mm 3 mps 760 mmHg 69%
    19:00 +13°C° 0 mm 3 mps 760 mmHg 71%
    20:00 +13°C° 0 mm 3 mps 760 mmHg 72%
    21:00 +12°C° 0 mm 4 mps 760 mmHg 74%
    22:00 +12°C° 0 mm 4 mps 760 mmHg 74%
    23:00 +12°C° 0 mm 4 mps 760 mmHg 75%

    25 July, Tuesday

    Time Temperature Precipitation Wind Pressure Humidity
    00:00 +12°C° 0 mm 4 mps 760 mmHg 75%
    01:00 +12°C° 0 mm 4 mps 760 mmHg 75%
    02:00 +12°C° 0 mm 4 mps 759 mmHg 76%
    03:00 +12°C° 0 mm 4 mps 759 mmHg 76%
    04:00 +12°C° 0 mm 5 mps 759 mmHg 76%
    05:00 +12°C° 0 mm 5 mps 759 mmHg 76%
    06:00 +12°C° 0 mm 5 mps 759 mmHg 76%
    07:00 +13°C° 0 mm 6 mps 760 mmHg 73%
    08:00 +14°C° 0 mm 6 mps 760 mmHg 71%
    09:00 +16°C° 0 mm 7 mps 760 mmHg 68%
    10:00 +16°C° 0 mm 7 mps 760 mmHg 66%
    11:00 +17°C° 0 mm 8 mps 760 mmHg 63%
    12:00 +18°C° 0 mm 8 mps 760 mmHg 60%
    13:00 +18°C° 0 mm 8 mps 760 mmHg 60%
    14:00 +17°C° 0 mm 7 mps 760 mmHg 60%
    15:00 +17°C° 0 mm 7 mps 760 mmHg 60%
    16:00 +16°C° 0 mm 6 mps 760 mmHg 65%
    17:00 +15°C° 0 mm 6 mps 760 mmHg 69%
    18:00 +14°C° 0 mm 5 mps 760 mmHg 73%
    19:00 +14°C° 0 mm 5 mps 761 mmHg 75%
    20:00 +13°C° 0 mm 5 mps 761 mmHg 78%
    21:00 +13°C° 0 mm 5 mps 761 mmHg 80%
    22:00 +13°C° 0 mm 5 mps 761 mmHg 80%
    23:00 +13°C° 0 mm 5 mps 761 mmHg 81%
    Show more